User: anonymous   Login
Location: Ch�teau-Arnoux
(44.0814°N, 6.0027°E)
Time: 11:26:36
(UTC+00:00)
Language:

SL-4 R/B - Orbit

View from above orbital plane
View from above orbital plane
View from above satellite
View from above satellite

Ground track
Ground track

The orbit data is extracted from the following two-line orbital elements,

1 39679U 14021B   20018.51491550 -.00000078 +00000-0 +14780-4 0  9993
2 39679 051.6164 087.8062 0172790 142.6809 218.6312 15.06280532316595
Epoch (UTC): 18 January 2020 12:21:28
Eccentricity: 0.0172790
inclination: 51.6164°
perigee height: 428 km
apogee height: 667 km
right ascension of ascending node: 87.8062°
argument of perigee: 142.6809°
revolutions per day: 15.06280532
mean anomaly at epoch: 218.6312°
orbit number at epoch: 31659

The dashed part of the orbit path shows where the satellite is in the earth's shadow,  

DLR